Weather History for KHHF - May, 2013

Change the Weather History Date:

Monday, May 27, 2013

  Actual Average (KPPA) Record (KPPA)
Temperature  
Mean Temperature 87 °F -  
Max Temperature 103 °F 80 °F 98 °F (2013)
Min Temperature 72 °F 54 °F 42 °F (1992)
Cooling Degree Days 22    
Growing Degree Days 37 (Base 50)    
Moisture  
Dew Point 50 °F    
Average Humidity 40    
Maximum Humidity 78    
Minimum Humidity 4    
Precipitation  
Precipitation 0.00 in - - ()
Sea Level Pressure  
Sea Level Pressure 29.72 in    
Wind  
Wind Speed 20 mph (SSW)    
Max Wind Speed 28 mph    
Max Gust Speed 39 mph    
Visibility 10 miles    
Events      
Averages and records for this station are not official NWS values.
T = Trace of Precipitation, MM = Missing Value Source: NWS Daily Summary

Daily Weather History Graph

Daily Weather History Graph

Search for Another Location

Airport or City:

Trip Planner

Search our weather history database for the weather conditions in past years. The results will help you decide how hot, cold, wet, or windy it might be!

Date:

Astronomy

May. 27, 2013 Rise Set
Actual Time 6:28 AM CDT 8:49 PM CDT
Civil Twilight 5:59 AM CDT 9:19 PM CDT
Nautical Twilight 5:22 AM CDT 9:55 PM CDT
Astronomical Twilight 4:43 AM CDT 10:34 PM CDT
Moon 11:32 PM CDT 9:06 AM CDT
Length of Visible Light 15h 19m
Length of Day
14h 21m
Waning Gibbous, 91% of the Moon is Illuminated
May 27
Waning Gibbous
May 31
Last Quarter
Jun 8
New
Jun 16
First Quarter
Jun 23
Full

Hourly Weather History & Observations

Time (CDT) Temp. Heat Index Dew Point Humidity Pressure Visibility Wind Dir Wind Speed Gust Speed Precip Events Conditions
12:15 AM 82.8 °F 83.4 °F 61.7 °F 49% 29.81 in 10.0 mi South 19.6 mph 25.3 mph N/A   Clear
12:35 AM 82.6 °F 83.2 °F 61.7 °F 49% 29.81 in 10.0 mi South 21.9 mph 27.6 mph N/A   Clear
12:55 AM 82.8 °F 83.4 °F 62.1 °F 49% 29.81 in 10.0 mi SSW 21.9 mph 28.8 mph N/A   Clear
1:15 AM 82.2 °F 83.2 °F 62.6 °F 51% 29.81 in 10.0 mi South 25.3 mph 34.5 mph N/A   Clear
1:35 AM 81.3 °F 82.5 °F 62.8 °F 53% 29.81 in 10.0 mi South 23.0 mph 31.1 mph N/A   Clear
1:55 AM 80.8 °F 82.2 °F 63.5 °F 56% 29.80 in 10.0 mi South 25.3 mph 32.2 mph N/A   Clear
2:15 AM 80.2 °F 81.9 °F 64.2 °F 58% 29.80 in 10.0 mi South 24.2 mph 33.4 mph N/A   Clear
2:35 AM 79.7 °F - 64.6 °F 60% 29.79 in 10.0 mi South 27.6 mph 35.7 mph N/A   Clear
2:55 AM 79.0 °F - 65.1 °F 62% 29.79 in 10.0 mi South 24.2 mph 33.4 mph N/A   Clear
3:15 AM 78.3 °F - 65.3 °F 64% 29.79 in 10.0 mi South 24.2 mph 33.4 mph N/A   Clear
3:35 AM 77.5 °F - 65.7 °F 67% 29.77 in 10.0 mi South 18.4 mph 28.8 mph N/A   Clear
3:55 AM 77.0 °F - 65.7 °F 68% 29.77 in 10.0 mi South 19.6 mph 29.9 mph N/A   Clear
4:15 AM 76.5 °F - 65.7 °F 69% 29.77 in 10.0 mi South 20.7 mph 26.5 mph N/A   Clear
4:35 AM 76.3 °F - 65.7 °F 70% 29.77 in 10.0 mi South 24.2 mph 28.8 mph N/A   Clear
4:55 AM 75.6 °F - 65.7 °F 71% 29.77 in 10.0 mi South 18.4 mph 25.3 mph N/A   Clear
5:15 AM 75.2 °F - 65.7 °F 72% 29.77 in 10.0 mi SSW 18.4 mph 28.8 mph N/A   Clear
5:35 AM 75.2 °F - 66.2 °F 73% 29.77 in 10.0 mi SSW 20.7 mph 25.3 mph N/A   Clear
5:55 AM 73.8 °F - 65.5 °F 75% 29.76 in 10.0 mi SSW 18.4 mph 26.5 mph N/A   Clear
6:15 AM 73.6 °F - 65.5 °F 76% 29.76 in 10.0 mi SSW 19.6 mph 26.5 mph N/A   Clear
6:35 AM 73.0 °F - 65.5 °F 77% 29.77 in 10.0 mi SSW 13.8 mph 20.7 mph N/A   Clear
6:55 AM 72.5 °F - 65.3 °F 78% 29.77 in 10.0 mi SSW 10.4 mph 16.1 mph N/A   Clear
7:15 AM 72.7 °F - 65.3 °F 78% 29.78 in 10.0 mi SW 5.8 mph - N/A   Clear
7:35 AM 73.4 °F - 65.7 °F 77% 29.79 in 10.0 mi SSW 5.8 mph - N/A   Clear
7:55 AM 75.2 °F - 66.2 °F 73% 29.79 in 10.0 mi SW 5.8 mph - N/A   Clear
8:15 AM 76.1 °F - 65.8 °F 70% 29.79 in 10.0 mi West 6.9 mph - N/A   Clear
8:35 AM 77.5 °F - 65.8 °F 67% 29.78 in 10.0 mi SSW 15.0 mph 19.6 mph N/A   Clear
8:55 AM 79.0 °F - 65.3 °F 63% 29.79 in 10.0 mi SSW 16.1 mph - N/A   Clear
9:15 AM 80.8 °F 82.5 °F 64.8 °F 58% 29.79 in 10.0 mi SSW 18.4 mph 24.2 mph N/A   Clear
9:35 AM 82.8 °F 84.2 °F 64.2 °F 53% 29.77 in 10.0 mi SSW 18.4 mph 26.5 mph N/A   Clear
9:55 AM 84.4 °F 85.2 °F 63.0 °F 48% 29.77 in 10.0 mi SW 18.4 mph 28.8 mph N/A   Clear
10:15 AM 86.5 °F 86.3 °F 60.3 °F 41% 29.77 in 10.0 mi SW 19.6 mph 27.6 mph N/A   Clear
10:35 AM 87.8 °F 87.1 °F 59.0 °F 38% 29.76 in 10.0 mi SW 23.0 mph 28.8 mph N/A   Clear
10:55 AM 89.1 °F 88.0 °F 57.7 °F 35% 29.75 in 10.0 mi SW 19.6 mph 25.3 mph N/A   Clear
11:15 AM 90.5 °F 89.0 °F 56.7 °F 32% 29.75 in 10.0 mi SW 20.7 mph 28.8 mph N/A   Clear
11:35 AM 91.4 °F 89.9 °F 56.7 °F 31% 29.74 in 10.0 mi SW 16.1 mph 26.5 mph N/A   Clear
11:55 AM 92.8 °F 91.1 °F 55.8 °F 29% 29.73 in 10.0 mi SSW 17.3 mph 27.6 mph N/A   Clear
12:15 PM 93.9 °F 92.0 °F 55.6 °F 27% 29.73 in 10.0 mi SW 23.0 mph 28.8 mph N/A   Clear
12:35 PM 95.4 °F 93.5 °F 55.2 °F 26% 29.72 in 10.0 mi SSW 21.9 mph 32.2 mph N/A   Clear
12:55 PM 96.1 °F 93.5 °F 53.1 °F 23% 29.71 in 10.0 mi SSW 19.6 mph 28.8 mph N/A   Clear
1:15 PM 97.0 °F - 49.8 °F 20% 29.71 in 10.0 mi SSW 20.7 mph 27.6 mph N/A   Clear
1:35 PM 97.5 °F - 47.7 °F 18% 29.70 in 10.0 mi SSW 18.4 mph 31.1 mph N/A   Clear
1:55 PM 99.0 °F - 43.3 °F 15% 29.70 in 10.0 mi SSW 21.9 mph 38.0 mph N/A   Clear
2:15 PM 99.1 °F - 44.2 °F 15% 29.69 in 10.0 mi SSW 20.7 mph 31.1 mph N/A   Clear
2:35 PM 97.9 °F - 44.1 °F 16% 29.68 in 10.0 mi SSW 21.9 mph 32.2 mph N/A   Clear
2:55 PM 99.3 °F - 44.6 °F 15% 29.67 in 10.0 mi SSW 25.3 mph 32.2 mph N/A   Clear
3:15 PM 100.2 °F - 44.6 °F 15% 29.66 in 10.0 mi SSW 23.0 mph 31.1 mph N/A   Clear
3:35 PM 97.9 °F - 40.6 °F 14% 29.67 in 10.0 mi SSW 23.0 mph 28.8 mph N/A   Clear
3:55 PM 99.1 °F - 42.3 °F 14% 29.65 in 10.0 mi SSW 21.9 mph 28.8 mph N/A   Clear
4:15 PM 100.0 °F - 33.4 °F 10% 29.64 in 10.0 mi SW 20.7 mph 31.1 mph N/A   Clear
4:35 PM 101.5 °F - 27.1 °F 7% 29.63 in 10.0 mi SW 19.6 mph 28.8 mph N/A   Clear
4:55 PM 102.9 °F - 22.6 °F 6% 29.63 in 10.0 mi SW 24.2 mph 39.1 mph N/A   Clear
5:15 PM 100.9 °F - 15.1 °F 4% 29.63 in 10.0 mi WSW 24.2 mph 31.1 mph N/A   Clear
5:35 PM 99.5 °F - 10.8 °F 4% 29.63 in 10.0 mi WSW 19.6 mph 29.9 mph N/A   Clear
5:55 PM 99.0 °F - 7.3 °F 4% 29.61 in 10.0 mi SW 15.0 mph 32.2 mph N/A   Clear
6:15 PM 97.5 °F - 7.3 °F 4% 29.62 in 10.0 mi WSW 19.6 mph 31.1 mph N/A   Clear
6:35 PM 96.8 °F - 5.5 °F 4% 29.62 in 10.0 mi WSW 15.0 mph 31.1 mph N/A   Clear
6:55 PM 97.9 °F - 5.5 °F 4% 29.61 in 10.0 mi WSW 18.4 mph 28.8 mph N/A   Clear
7:15 PM 95.5 °F - 4.3 °F 4% 29.62 in 10.0 mi SW 18.4 mph 23.0 mph N/A   Clear
7:35 PM 95.4 °F - 3.9 °F 4% 29.62 in 10.0 mi SW 17.3 mph 23.0 mph N/A   Clear
7:55 PM 93.0 °F - 9.0 °F 4% 29.62 in 10.0 mi WSW 10.4 mph 20.7 mph N/A   Clear
8:15 PM 90.5 °F - 10.9 °F 5% 29.63 in 10.0 mi SW 6.9 mph - N/A   Clear
8:35 PM 88.0 °F - 9.7 °F 5% 29.63 in 10.0 mi SSW 8.1 mph - N/A   Clear
8:55 PM 87.8 °F - 12.9 °F 6% 29.65 in 10.0 mi South 13.8 mph 19.6 mph N/A   Clear
9:15 PM 86.5 °F 84.9 °F 54.9 °F 34% 29.65 in 10.0 mi South 18.4 mph 24.2 mph N/A   Clear
9:35 PM 86.5 °F 86.5 °F 61.2 °F 42% 29.66 in 10.0 mi South 20.7 mph 31.1 mph N/A   Clear
9:55 PM 85.3 °F 85.9 °F 62.2 °F 46% 29.66 in 10.0 mi South 21.9 mph - N/A   Clear
10:15 PM 84.6 °F 85.0 °F 61.7 °F 46% 29.67 in 10.0 mi South 26.5 mph 32.2 mph N/A   Clear
10:35 PM 84.2 °F 85.2 °F 63.1 °F 49% 29.67 in 10.0 mi South 27.6 mph 36.8 mph N/A   Clear
10:55 PM 83.1 °F 84.4 °F 63.9 °F 52% 29.67 in 10.0 mi South 21.9 mph 32.2 mph N/A   Clear
11:15 PM 82.6 °F 84.5 °F 65.5 °F 56% 29.68 in 10.0 mi South 23.0 mph 29.9 mph N/A   Clear
11:35 PM 82.0 °F 84.1 °F 65.8 °F 58% 29.67 in 10.0 mi South 23.0 mph 32.2 mph N/A   Clear
11:55 PM 81.3 °F 83.5 °F 66.4 °F 60% 29.68 in 10.0 mi South 24.2 mph - N/A   Clear